Location: Bartshausen
(51.8454°N, 9.8167°E)
Time: 06:53:57
(UTC+00:00)

Cosmos 2219 Rocket - Pass Details

Date: 08 November 2025
Orbit: 825 x 847 km, 71.0° (Epoch: 11 December)

Event Time Altitude Azimuth Distance (km) Brightness Sun altitude
Exits shadow 02:55:16 51° 95° (E) 1,053 2.9 -32.8°
Drops below altitude 10° 03:00:19 10° 38° (NE) 2,477 5.2 -32.0°
Sets 03:02:50 0° 33° (NNE) 3,418 6.0 -31.6°
